Time,TemperatureF,DewpointF,PressureIn,WindDirection,WindDirectionDegrees,WindSpeedMPH,WindSpeedGustMPH,Humidity,HourlyPrecipIn,Conditions,Clouds,dailyrainin,SoftwareType,DateUTC
2013-01-17 00:01:00,29.8,11.6,29.85,West,272,11.0,11.0,46,0.00,,---,0.00,VWS V14.01,2013-01-17 07:01:00,
2013-01-17 00:06:00,29.7,10.9,29.85,WNW,291,8.7,9.2,45,0.00,,---,0.00,VWS V14.01,2013-01-17 07:06:00,
2013-01-17 00:12:00,29.1,10.4,29.85,WNW,292,11.0,11.0,45,0.00,,---,0.00,VWS V14.01,2013-01-17 07:12:00,
2013-01-17 00:17:00,29.1,10.4,29.85,WNW,291,10.1,10.5,45,0.00,,---,0.00,VWS V14.01,2013-01-17 07:17:00,
2013-01-17 00:23:00,29.1,10.4,29.85,WNW,286,12.8,12.8,45,0.00,,---,0.00,VWS V14.01,2013-01-17 07:23:00,
2013-01-17 00:28:00,29.3,10.6,29.85,WNW,302,12.3,12.3,45,0.00,,---,0.00,VWS V14.01,2013-01-17 07:28:00,
2013-01-17 00:33:00,29.3,10.6,29.85,West,277,10.1,10.1,45,0.00,,---,0.00,VWS V14.01,2013-01-17 07:33:00,
2013-01-17 00:38:00,29.1,10.4,29.85,West,276,10.5,11.9,45,0.00,,---,0.00,VWS V14.01,2013-01-17 07:38:00,
2013-01-17 00:44:00,29.1,10.4,29.85,West,271,10.5,10.5,45,0.00,,---,0.00,VWS V14.01,2013-01-17 07:44:00,
2013-01-17 00:49:00,29.1,10.4,29.85,WNW,283,8.1,8.1,45,0.00,,---,0.00,VWS V14.01,2013-01-17 07:49:00,
2013-01-17 00:55:00,29.1,9.9,29.85,West,280,10.1,11.4,44,0.00,,---,0.00,VWS V14.01,2013-01-17 07:55:00,
2013-01-17 01:01:00,29.1,9.9,29.85,WNW,283,10.1,10.1,44,0.00,,---,0.00,VWS V14.01,2013-01-17 08:01:00,
2013-01-17 01:06:00,29.1,9.9,29.85,WNW,283,12.3,12.3,44,0.00,,---,0.00,VWS V14.01,2013-01-17 08:06:00,
2013-01-17 01:12:00,29.1,9.9,29.85,West,280,15.0,15.0,44,0.00,,---,0.00,VWS V14.01,2013-01-17 08:12:00,
2013-01-17 01:18:00,28.9,9.8,29.85,WNW,285,11.4,12.8,44,0.00,,---,0.00,VWS V14.01,2013-01-17 08:18:00,
2013-01-17 01:23:00,28.8,9.6,29.85,WNW,290,10.5,10.5,44,0.00,,---,0.00,VWS V14.01,2013-01-17 08:23:00,
2013-01-17 01:29:00,28.8,9.6,29.85,WNW,297,10.5,10.5,44,0.00,,---,0.00,VWS V14.01,2013-01-17 08:29:00,
2013-01-17 01:34:00,28.8,9.1,29.85,WNW,300,14.5,14.5,43,0.00,,---,0.00,VWS V14.01,2013-01-17 08:34:00,
2013-01-17 01:40:00,28.8,9.1,29.85,West,270,13.6,13.6,43,0.00,,---,0.00,VWS V14.01,2013-01-17 08:40:00,
2013-01-17 01:46:00,28.8,9.1,29.85,WNW,285,11.9,12.8,43,0.00,,---,0.00,VWS V14.01,2013-01-17 08:46:00,
2013-01-17 01:51:00,28.8,9.1,29.88,WNW,284,13.2,13.2,43,0.00,,---,0.00,VWS V14.01,2013-01-17 08:51:00,
2013-01-17 01:56:00,28.9,9.3,29.88,WNW,294,13.2,13.2,43,0.00,,---,0.00,VWS V14.01,2013-01-17 08:56:00,
2013-01-17 02:01:00,28.9,9.3,29.88,WNW,303,14.5,16.3,43,0.00,,---,0.00,VWS V14.01,2013-01-17 09:01:00,
2013-01-17 02:07:00,28.9,9.3,29.88,West,278,11.0,11.0,43,0.00,,---,0.00,VWS V14.01,2013-01-17 09:07:00,
2013-01-17 02:12:00,28.9,9.3,29.88,WNW,301,14.1,14.1,43,0.00,,---,0.00,VWS V14.01,2013-01-17 09:12:00,
2013-01-17 02:19:00,28.9,8.7,29.88,West,271,11.0,11.0,42,0.00,,---,0.00,VWS V14.01,2013-01-17 09:19:00,
2013-01-17 02:23:00,28.6,8.4,29.88,West,278,12.8,13.2,42,0.00,,---,0.00,VWS V14.01,2013-01-17 09:23:00,
2013-01-17 02:29:00,28.4,8.8,29.88,West,267,10.5,10.5,43,0.00,,---,0.00,VWS V14.01,2013-01-17 09:29:00,
2013-01-17 02:34:00,28.4,8.8,29.88,West,274,10.5,10.5,43,0.00,,---,0.00,VWS V14.01,2013-01-17 09:34:00,
2013-01-17 02:39:00,27.9,8.3,29.88,West,278,8.7,10.1,43,0.00,,---,0.00,VWS V14.01,2013-01-17 09:39:00,
2013-01-17 02:45:00,27.9,8.3,29.88,WNW,285,12.3,12.3,43,0.00,,---,0.00,VWS V14.01,2013-01-17 09:45:00,
2013-01-17 02:51:00,27.3,7.8,29.88,West,281,8.3,12.3,43,0.00,,---,0.00,VWS V14.01,2013-01-17 09:51:00,
2013-01-17 02:56:00,27.3,7.8,29.88,West,273,8.3,8.3,43,0.00,,---,0.00,VWS V14.01,2013-01-17 09:56:00,
2013-01-17 03:02:00,27.5,7.9,29.88,West,274,7.6,8.1,43,0.00,,---,0.00,VWS V14.01,2013-01-17 10:02:00,
2013-01-17 03:07:00,27.0,7.5,29.88,West,274,6.7,6.7,43,0.00,,---,0.00,VWS V14.01,2013-01-17 10:07:00,
2013-01-17 03:12:00,26.6,7.1,29.88,WNW,288,6.3,6.3,43,0.00,,---,0.00,VWS V14.01,2013-01-17 10:12:00,
2013-01-17 03:17:00,26.1,6.6,29.88,WNW,282,7.6,7.6,43,0.00,,---,0.00,VWS V14.01,2013-01-17 10:17:00,
2013-01-17 03:23:00,26.1,6.6,29.88,West,281,5.8,8.1,43,0.00,,---,0.00,VWS V14.01,2013-01-17 10:23:00,
2013-01-17 03:28:00,25.5,6.2,29.88,WNW,285,5.4,5.4,43,0.00,,---,0.00,VWS V14.01,2013-01-17 10:28:00,
2013-01-17 03:34:00,25.0,5.7,29.88,WNW,284,6.3,6.3,43,0.00,,---,0.00,VWS V14.01,2013-01-17 10:34:00,
2013-01-17 03:40:00,24.6,5.8,29.88,WNW,291,8.3,8.3,44,0.00,,---,0.00,VWS V14.01,2013-01-17 10:40:00,
2013-01-17 03:45:00,24.6,5.8,29.88,West,277,8.1,8.1,44,0.00,,---,0.00,VWS V14.01,2013-01-17 10:45:00,
2013-01-17 03:51:00,24.6,5.8,29.88,West,279,4.9,4.9,44,0.00,,---,0.00,VWS V14.01,2013-01-17 10:51:00,
2013-01-17 03:57:00,25.2,6.3,29.88,WNW,294,8.3,8.3,44,0.00,,---,0.00,VWS V14.01,2013-01-17 10:57:00,
2013-01-17 04:02:00,25.2,6.3,29.88,WNW,286,6.3,6.7,44,0.00,,---,0.00,VWS V14.01,2013-01-17 11:02:00,
2013-01-17 04:08:00,24.8,6.0,29.88,WNW,288,8.1,8.1,44,0.00,,---,0.00,VWS V14.01,2013-01-17 11:08:00,
2013-01-17 04:13:00,24.8,6.0,29.88,WNW,283,7.6,7.6,44,0.00,,---,0.00,VWS V14.01,2013-01-17 11:13:00,
2013-01-17 04:19:00,24.8,6.5,29.88,WNW,283,6.3,8.1,45,0.00,,---,0.00,VWS V14.01,2013-01-17 11:19:00,
2013-01-17 04:25:00,24.4,6.2,29.88,West,263,8.7,8.7,45,0.00,,---,0.00,VWS V14.01,2013-01-17 11:25:00,
2013-01-17 04:30:00,24.4,6.2,29.88,West,277,6.3,8.1,45,0.00,,---,0.00,VWS V14.01,2013-01-17 11:30:00,
2013-01-17 04:36:00,24.1,5.8,29.88,WNW,282,6.3,6.3,45,0.00,,---,0.00,VWS V14.01,2013-01-17 11:36:00,
2013-01-17 04:41:00,24.1,5.8,29.88,WNW,285,6.3,6.3,45,0.00,,---,0.00,VWS V14.01,2013-01-17 11:41:00,
2013-01-17 04:47:00,23.4,5.2,29.88,WNW,286,7.6,7.6,45,0.00,,---,0.00,VWS V14.01,2013-01-17 11:47:00,
2013-01-17 04:53:00,23.4,5.2,29.88,WNW,286,8.3,8.7,45,0.00,,---,0.00,VWS V14.01,2013-01-17 11:53:00,
2013-01-17 04:58:00,23.5,5.3,29.88,WNW,286,7.6,7.6,45,0.00,,---,0.00,VWS V14.01,2013-01-17 11:58:00,
2013-01-17 05:03:00,23.5,5.8,29.88,WNW,292,8.7,8.7,46,0.00,,---,0.00,VWS V14.01,2013-01-17 12:03:00,
2013-01-17 05:09:00,23.7,6.0,29.88,WNW,294,10.1,10.1,46,0.00,,---,0.00,VWS V14.01,2013-01-17 12:09:00,
2013-01-17 05:15:00,24.1,6.3,29.88,WNW,284,8.3,8.3,46,0.00,,---,0.00,VWS V14.01,2013-01-17 12:15:00,
2013-01-17 05:20:00,24.1,6.3,29.88,WNW,292,8.7,8.7,46,0.00,,---,0.00,VWS V14.01,2013-01-17 12:20:00,
2013-01-17 05:26:00,24.1,6.3,29.88,NW,306,7.6,7.6,46,0.00,,---,0.00,VWS V14.01,2013-01-17 12:26:00,
2013-01-17 05:32:00,24.3,6.5,29.88,NW,307,7.6,7.6,46,0.00,,---,0.00,VWS V14.01,2013-01-17 12:32:00,
2013-01-17 05:37:00,24.3,6.5,29.88,WNW,297,8.7,10.1,46,0.00,,---,0.00,VWS V14.01,2013-01-17 12:37:00,
2013-01-17 05:43:00,24.1,6.3,29.88,WNW,297,8.7,8.7,46,0.00,,---,0.00,VWS V14.01,2013-01-17 12:43:00,
2013-01-17 05:48:00,24.1,6.3,29.88,WNW,294,10.1,10.1,46,0.00,,---,0.00,VWS V14.01,2013-01-17 12:48:00,
2013-01-17 05:54:00,23.7,6.0,29.88,WNW,292,11.0,11.0,46,0.00,,---,0.00,VWS V14.01,2013-01-17 12:54:00,
2013-01-17 06:00:00,23.7,6.0,29.88,WNW,284,11.0,11.0,46,0.00,,---,0.00,VWS V14.01,2013-01-17 13:00:00,
2013-01-17 06:05:00,23.7,6.0,29.88,WNW,291,10.5,10.5,46,0.00,,---,0.00,VWS V14.01,2013-01-17 13:05:00,
2013-01-17 06:10:00,24.1,6.3,29.91,WNW,287,11.0,11.0,46,0.00,,---,0.00,VWS V14.01,2013-01-17 13:10:00,
2013-01-17 06:16:00,24.1,6.3,29.91,WNW,287,11.0,11.0,46,0.00,,---,0.00,VWS V14.01,2013-01-17 13:16:00,
2013-01-17 06:21:00,24.1,6.3,29.91,WNW,299,11.0,13.2,46,0.00,,---,0.00,VWS V14.01,2013-01-17 13:21:00,
2013-01-17 06:28:00,24.1,6.3,29.91,WNW,301,12.3,12.3,46,0.00,,---,0.00,VWS V14.01,2013-01-17 13:28:00,
2013-01-17 06:33:00,24.1,6.3,29.91,WNW,295,10.5,10.5,46,0.00,,---,0.00,VWS V14.01,2013-01-17 13:33:00,
2013-01-17 06:39:00,24.1,6.3,29.91,WNW,294,11.0,11.0,46,0.00,,---,0.00,VWS V14.01,2013-01-17 13:39:00,
2013-01-17 06:46:00,24.1,6.3,29.91,WNW,298,12.8,12.8,46,0.00,,---,0.00,VWS V14.01,2013-01-17 13:46:00,
2013-01-17 06:51:00,24.1,6.3,29.91,WNW,292,12.8,12.8,46,0.00,,---,0.00,VWS V14.01,2013-01-17 13:51:00,
2013-01-17 06:57:00,24.1,6.3,29.91,WNW,289,10.1,10.1,46,0.00,,---,0.00,VWS V14.01,2013-01-17 13:57:00,
2013-01-17 07:02:00,23.9,5.7,29.91,WNW,292,10.5,10.5,45,0.00,,---,0.00,VWS V14.01,2013-01-17 14:02:00,
2013-01-17 07:07:00,23.7,5.5,29.91,WNW,292,10.5,10.5,45,0.00,,---,0.00,VWS V14.01,2013-01-17 14:07:00,
2013-01-17 07:12:00,23.5,5.3,29.91,WNW,293,10.5,10.5,45,0.00,,---,0.00,VWS V14.01,2013-01-17 14:12:00,
2013-01-17 07:18:00,23.5,5.3,29.91,WNW,294,11.0,11.0,45,0.00,,---,0.00,VWS V14.01,2013-01-17 14:18:00,
2013-01-17 07:23:00,23.7,6.0,29.91,WNW,302,12.3,12.3,46,0.00,,---,0.00,VWS V14.01,2013-01-17 14:23:00,
2013-01-17 07:29:00,23.9,6.1,29.91,WNW,293,13.2,13.2,46,0.00,,---,0.00,VWS V14.01,2013-01-17 14:29:00,
2013-01-17 07:35:00,24.4,6.6,29.91,WNW,293,13.2,13.2,46,0.00,,---,0.00,VWS V14.01,2013-01-17 14:35:00,
2013-01-17 07:40:00,24.6,6.8,29.91,WNW,298,12.8,13.2,46,0.00,,---,0.00,VWS V14.01,2013-01-17 14:40:00,
2013-01-17 07:45:00,25.0,6.7,29.91,WNW,299,12.3,12.8,45,0.00,,---,0.00,VWS V14.01,2013-01-17 14:45:00,
2013-01-17 07:52:00,25.3,7.0,29.91,WNW,299,12.3,12.3,45,0.00,,---,0.00,VWS V14.01,2013-01-17 14:52:00,
2013-01-17 07:57:00,25.9,7.5,29.94,WNW,295,11.0,11.0,45,0.00,,---,0.00,VWS V14.01,2013-01-17 14:57:00,
2013-01-17 08:03:00,26.1,7.6,29.94,WNW,299,13.2,13.2,45,0.00,,---,0.00,VWS V14.01,2013-01-17 15:03:00,
2013-01-17 08:08:00,26.4,8.0,29.94,West,281,9.6,9.6,45,0.00,,---,0.00,VWS V14.01,2013-01-17 15:08:00,
2013-01-17 08:13:00,26.8,7.8,29.94,West,281,9.6,9.6,44,0.00,,---,0.00,VWS V14.01,2013-01-17 15:13:00,
2013-01-17 08:20:00,27.0,8.0,29.94,WNW,291,11.0,11.0,44,0.00,,---,0.00,VWS V14.01,2013-01-17 15:20:00,
2013-01-17 08:25:00,27.5,8.5,29.94,WNW,285,8.7,8.7,44,0.00,,---,0.00,VWS V14.01,2013-01-17 15:25:00,
2013-01-17 08:30:00,28.0,8.9,29.94,WNW,296,12.3,12.3,44,0.00,,---,0.00,VWS V14.01,2013-01-17 15:30:00,
2013-01-17 08:35:00,28.6,8.9,29.94,WNW,295,10.5,10.5,43,0.00,,---,0.00,VWS V14.01,2013-01-17 15:35:00,
2013-01-17 08:40:00,28.9,9.3,29.94,WNW,295,10.5,10.5,43,0.00,,---,0.00,VWS V14.01,2013-01-17 15:40:00,
2013-01-17 08:46:00,29.8,9.6,29.94,WNW,295,10.5,10.5,42,0.00,,---,0.00,VWS V14.01,2013-01-17 15:46:00,
2013-01-17 08:52:00,30.4,10.1,29.94,WNW,292,13.6,13.6,42,0.00,,---,0.00,VWS V14.01,2013-01-17 15:52:00,
2013-01-17 08:57:00,30.9,10.0,29.97,WNW,292,13.6,13.6,41,0.00,,---,0.00,VWS V14.01,2013-01-17 15:57:00,
2013-01-17 09:02:00,31.3,10.3,29.97,WNW,294,13.6,16.3,41,0.00,,---,0.00,VWS V14.01,2013-01-17 16:02:00,
2013-01-17 09:08:00,31.8,10.8,29.97,WNW,295,14.5,14.5,41,0.00,,---,0.00,VWS V14.01,2013-01-17 16:08:00,
2013-01-17 09:13:00,32.4,11.3,29.97,WNW,289,12.8,14.5,41,0.00,,---,0.00,VWS V14.01,2013-01-17 16:13:00,
2013-01-17 09:20:00,32.9,11.2,29.97,WNW,294,10.1,10.5,40,0.00,,---,0.00,VWS V14.01,2013-01-17 16:20:00,
2013-01-17 09:25:00,33.4,11.7,29.97,WNW,284,12.3,13.2,40,0.00,,---,0.00,VWS V14.01,2013-01-17 16:25:00,
2013-01-17 09:30:00,34.0,12.2,29.97,WNW,290,13.2,13.2,40,0.00,,---,0.00,VWS V14.01,2013-01-17 16:30:00,
2013-01-17 09:37:00,34.3,12.0,29.97,WNW,284,12.8,12.8,39,0.00,,---,0.00,VWS V14.01,2013-01-17 16:37:00,
2013-01-17 09:42:00,34.9,12.4,29.97,WNW,298,15.4,15.4,39,0.00,,---,0.00,VWS V14.01,2013-01-17 16:42:00,
2013-01-17 09:47:00,35.2,12.2,29.97,WNW,291,13.6,15.4,38,0.00,,---,0.00,VWS V14.01,2013-01-17 16:47:00,
2013-01-17 09:53:00,35.6,11.9,29.97,WNW,293,10.5,12.8,37,0.00,,---,0.00,VWS V14.01,2013-01-17 16:53:00,
2013-01-17 09:58:00,36.1,12.4,29.97,WNW,296,13.2,13.2,37,0.00,,---,0.00,VWS V14.01,2013-01-17 16:58:00,
2013-01-17 10:05:00,36.7,12.9,29.97,NW,313,7.6,10.1,37,0.00,,---,0.00,VWS V14.01,2013-01-17 17:05:00,
2013-01-17 10:10:00,37.4,12.9,29.97,WNW,297,8.3,10.1,36,0.00,,---,0.00,VWS V14.01,2013-01-17 17:10:00,
2013-01-17 10:15:00,37.9,12.7,29.97,WNW,298,11.0,11.0,35,0.00,,---,0.00,VWS V14.01,2013-01-17 17:15:00,
2013-01-17 10:21:00,38.5,13.2,29.97,WNW,287,10.5,12.8,35,0.00,,---,0.00,VWS V14.01,2013-01-17 17:21:00,
2013-01-17 10:26:00,38.7,12.7,29.97,WNW,297,13.2,13.2,34,0.00,,---,0.00,VWS V14.01,2013-01-17 17:26:00,
2013-01-17 10:33:00,38.8,12.2,29.97,WNW,291,10.1,10.5,33,0.00,,---,0.00,VWS V14.01,2013-01-17 17:33:00,
2013-01-17 10:38:00,39.2,12.5,29.97,WNW,289,9.6,9.6,33,0.00,,---,0.00,VWS V14.01,2013-01-17 17:38:00,
2013-01-17 10:43:00,39.7,13.0,29.97,NW,316,8.1,8.7,33,0.00,,---,0.00,VWS V14.01,2013-01-17 17:43:00,
2013-01-17 10:48:00,40.3,13.5,29.97,WNW,302,10.5,10.5,33,0.00,,---,0.00,VWS V14.01,2013-01-17 17:48:00,
2013-01-17 10:54:00,40.6,13.1,29.97,WSW,255,8.3,8.7,32,0.00,,---,0.00,VWS V14.01,2013-01-17 17:54:00,
2013-01-17 10:59:00,40.6,13.1,29.97,West,260,8.7,10.1,32,0.00,,---,0.00,VWS V14.01,2013-01-17 17:59:00,
2013-01-17 11:05:00,40.8,13.3,29.97,WNW,289,8.3,10.1,32,0.00,,---,0.00,VWS V14.01,2013-01-17 18:05:00,
2013-01-17 11:10:00,41.0,12.7,29.97,West,266,8.1,9.6,31,0.00,,---,0.00,VWS V14.01,2013-01-17 18:10:00,
2013-01-17 11:15:00,41.2,12.9,29.97,West,273,8.7,8.7,31,0.00,,---,0.00,VWS V14.01,2013-01-17 18:15:00,
2013-01-17 11:21:00,41.5,12.4,29.97,WNW,295,8.1,10.1,30,0.00,,---,0.00,VWS V14.01,2013-01-17 18:21:00,
2013-01-17 11:27:00,41.9,12.7,29.97,West,270,12.8,12.8,30,0.00,,---,0.00,VWS V14.01,2013-01-17 18:27:00,
2013-01-17 11:32:00,42.1,12.9,29.94,West,280,8.3,11.0,30,0.00,,---,0.00,VWS V14.01,2013-01-17 18:32:00,
2013-01-17 11:37:00,42.3,13.1,29.94,WNW,292,11.0,11.0,30,0.00,,---,0.00,VWS V14.01,2013-01-17 18:37:00,
2013-01-17 11:43:00,42.8,13.5,29.94,WNW,283,10.5,12.3,30,0.00,,---,0.00,VWS V14.01,2013-01-17 18:43:00,
2013-01-17 11:50:00,43.0,13.7,29.94,West,278,8.1,11.0,30,0.00,,---,0.00,VWS V14.01,2013-01-17 18:50:00,
2013-01-17 11:55:00,43.2,13.8,29.94,West,267,8.3,11.0,30,0.00,,---,0.00,VWS V14.01,2013-01-17 18:55:00,
2013-01-17 12:01:00,43.3,14.0,29.94,WNW,291,8.7,10.5,30,0.00,,---,0.00,VWS V14.01,2013-01-17 19:01:00,
2013-01-17 12:06:00,43.5,14.2,29.94,WSW,254,8.1,10.1,30,0.00,,---,0.00,VWS V14.01,2013-01-17 19:06:00,
2013-01-17 12:11:00,43.7,14.3,29.94,West,261,5.4,6.3,30,0.00,,---,0.00,VWS V14.01,2013-01-17 19:11:00,
2013-01-17 12:16:00,44.1,14.6,29.94,West,260,8.7,8.7,30,0.00,,---,0.00,VWS V14.01,2013-01-17 19:16:00,
2013-01-17 12:22:00,44.2,14.0,29.94,West,278,7.6,10.1,29,0.00,,---,0.00,VWS V14.01,2013-01-17 19:22:00,
2013-01-17 12:27:00,44.2,14.0,29.94,WSW,257,8.3,8.3,29,0.00,,---,0.00,VWS V14.01,2013-01-17 19:27:00,
2013-01-17 12:33:00,44.6,14.3,29.94,WSW,241,6.3,8.1,29,0.00,,---,0.00,VWS V14.01,2013-01-17 19:33:00,
2013-01-17 12:39:00,44.8,14.5,29.94,WSW,257,6.3,8.3,29,0.00,,---,0.00,VWS V14.01,2013-01-17 19:39:00,
2013-01-17 12:44:00,44.8,14.5,29.91,WSW,237,10.5,10.5,29,0.00,,---,0.00,VWS V14.01,2013-01-17 19:44:00,
2013-01-17 12:49:00,44.8,14.5,29.91,WSW,250,7.2,7.2,29,0.00,,---,0.00,VWS V14.01,2013-01-17 19:49:00,
2013-01-17 12:54:00,45.0,13.8,29.91,West,274,8.3,10.5,28,0.00,,---,0.00,VWS V14.01,2013-01-17 19:54:00,
2013-01-17 13:00:00,45.1,14.8,29.91,WSW,247,6.3,8.3,29,0.00,,---,0.00,VWS V14.01,2013-01-17 20:00:00,
2013-01-17 13:06:00,45.3,14.1,29.91,WSW,241,8.3,8.3,28,0.00,,---,0.00,VWS V14.01,2013-01-17 20:06:00,
2013-01-17 13:11:00,45.3,14.1,29.91,SW,236,8.1,8.7,28,0.00,,---,0.00,VWS V14.01,2013-01-17 20:11:00,
2013-01-17 13:17:00,45.5,14.3,29.91,WSW,253,6.3,8.3,28,0.00,,---,0.00,VWS V14.01,2013-01-17 20:17:00,
2013-01-17 13:22:00,45.7,14.5,29.91,SW,235,8.7,8.7,28,0.00,,---,0.00,VWS V14.01,2013-01-17 20:22:00,
2013-01-17 13:27:00,45.9,14.6,29.91,West,262,7.6,9.2,28,0.00,,---,0.00,VWS V14.01,2013-01-17 20:27:00,
2013-01-17 13:32:00,46.0,14.8,29.91,West,260,11.0,11.0,28,0.00,,---,0.00,VWS V14.01,2013-01-17 20:32:00,
2013-01-17 13:39:00,46.2,14.9,29.91,WSW,237,8.3,9.2,28,0.00,,---,0.00,VWS V14.01,2013-01-17 20:39:00,
2013-01-17 13:44:00,46.4,15.1,29.91,WSW,244,10.5,10.5,28,0.00,,---,0.00,VWS V14.01,2013-01-17 20:44:00,
2013-01-17 13:49:00,46.4,15.1,29.91,SW,222,5.8,8.3,28,0.00,,---,0.00,VWS V14.01,2013-01-17 20:49:00,
2013-01-17 13:56:00,46.4,15.1,29.91,WSW,240,8.1,8.3,28,0.00,,---,0.00,VWS V14.01,2013-01-17 20:56:00,
2013-01-17 14:01:00,46.6,15.2,29.91,WSW,241,8.1,8.7,28,0.00,,---,0.00,VWS V14.01,2013-01-17 21:01:00,
2013-01-17 14:07:00,46.6,15.2,29.91,WSW,239,7.6,8.7,28,0.00,,---,0.00,VWS V14.01,2013-01-17 21:07:00,
2013-01-17 14:12:00,46.8,14.6,29.88,WSW,250,10.1,10.1,27,0.00,,---,0.00,VWS V14.01,2013-01-17 21:12:00,
2013-01-17 14:17:00,46.8,14.6,29.88,WSW,256,10.1,10.1,27,0.00,,---,0.00,VWS V14.01,2013-01-17 21:17:00,
2013-01-17 14:24:00,46.9,14.7,29.88,West,265,8.1,8.1,27,0.00,,---,0.00,VWS V14.01,2013-01-17 21:24:00,
2013-01-17 14:29:00,46.9,14.7,29.88,WSW,240,8.7,9.6,27,0.00,,---,0.00,VWS V14.01,2013-01-17 21:29:00,
2013-01-17 14:34:00,46.9,14.7,29.88,WSW,243,7.2,8.7,27,0.00,,---,0.00,VWS V14.01,2013-01-17 21:34:00,
2013-01-17 14:40:00,47.1,14.9,29.88,SW,228,6.3,8.3,27,0.00,,---,0.00,VWS V14.01,2013-01-17 21:40:00,
2013-01-17 14:45:00,47.1,14.9,29.88,WSW,240,7.6,8.3,27,0.00,,---,0.00,VWS V14.01,2013-01-17 21:45:00,
2013-01-17 14:51:00,47.1,14.9,29.88,SW,225,6.3,6.3,27,0.00,,---,0.00,VWS V14.01,2013-01-17 21:51:00,
2013-01-17 14:56:00,47.1,14.9,29.88,SSW,209,4.9,6.3,27,0.00,,---,0.00,VWS V14.01,2013-01-17 21:56:00,
2013-01-17 15:02:00,47.1,14.9,29.88,SSW,207,6.7,6.7,27,0.00,,---,0.00,VWS V14.01,2013-01-17 22:02:00,
2013-01-17 15:07:00,47.1,14.9,29.88,SSW,198,6.3,6.3,27,0.00,,---,0.00,VWS V14.01,2013-01-17 22:07:00,
2013-01-17 15:13:00,47.1,14.9,29.88,SW,228,7.6,8.3,27,0.00,,---,0.00,VWS V14.01,2013-01-17 22:13:00,
2013-01-17 15:18:00,47.1,14.9,29.88,SW,232,7.6,7.6,27,0.00,,---,0.00,VWS V14.01,2013-01-17 22:18:00,
2013-01-17 15:24:00,47.1,14.9,29.88,SW,219,5.4,7.6,27,0.00,,---,0.00,VWS V14.01,2013-01-17 22:24:00,
2013-01-17 15:29:00,46.9,14.7,29.88,SW,219,5.8,5.8,27,0.00,,---,0.00,VWS V14.01,2013-01-17 22:29:00,
2013-01-17 15:34:00,46.8,14.6,29.88,SSW,199,6.3,6.3,27,0.00,,---,0.00,VWS V14.01,2013-01-17 22:34:00,
2013-01-17 15:40:00,46.4,15.1,29.88,South,181,7.6,9.6,28,0.00,,---,0.00,VWS V14.01,2013-01-17 22:40:00,
2013-01-17 15:45:00,45.9,14.6,29.88,South,175,6.3,8.7,28,0.00,,---,0.00,VWS V14.01,2013-01-17 22:45:00,
2013-01-17 15:52:00,45.1,14.0,29.88,South,177,8.3,8.3,28,0.00,,---,0.00,VWS V14.01,2013-01-17 22:52:00,
2013-01-17 15:57:00,44.2,14.0,29.88,South,179,8.1,8.1,29,0.00,,---,0.00,VWS V14.01,2013-01-17 22:57:00,
2013-01-17 16:02:00,43.7,13.5,29.88,SSE,164,5.8,9.6,29,0.00,,---,0.00,VWS V14.01,2013-01-17 23:02:00,
2013-01-17 16:09:00,43.0,12.9,29.88,SSE,162,6.3,8.3,29,0.00,,---,0.00,VWS V14.01,2013-01-17 23:09:00,
2013-01-17 16:14:00,42.3,12.3,29.88,South,183,6.3,8.7,29,0.00,,---,0.00,VWS V14.01,2013-01-17 23:14:00,
2013-01-17 16:19:00,41.9,12.0,29.88,SSE,163,6.7,7.6,29,0.00,,---,0.00,VWS V14.01,2013-01-17 23:19:00,
2013-01-17 16:24:00,41.5,11.7,29.88,South,169,5.4,8.1,29,0.00,,---,0.00,VWS V14.01,2013-01-17 23:24:00,
2013-01-17 16:29:00,40.8,11.8,29.88,South,171,6.3,8.3,30,0.00,,---,0.00,VWS V14.01,2013-01-17 23:29:00,
2013-01-17 16:34:00,40.3,11.3,29.88,South,170,8.1,8.3,30,0.00,,---,0.00,VWS V14.01,2013-01-17 23:34:00,
2013-01-17 16:40:00,39.6,10.7,29.88,South,176,7.6,8.3,30,0.00,,---,0.00,VWS V14.01,2013-01-17 23:40:00,
2013-01-17 16:46:00,38.8,10.8,29.85,South,177,8.1,8.3,31,0.00,,---,0.00,VWS V14.01,2013-01-17 23:46:00,
2013-01-17 16:51:00,38.1,10.2,29.85,South,178,5.8,8.7,31,0.00,,---,0.00,VWS V14.01,2013-01-17 23:51:00,
2013-01-17 16:56:00,37.6,9.7,29.85,South,183,6.3,7.6,31,0.00,,---,0.00,VWS V14.01,2013-01-17 23:56:00,
2013-01-17 17:01:00,37.2,10.1,29.85,South,183,7.6,8.1,32,0.00,,---,0.00,VWS V14.01,2013-01-18 00:01:00,
2013-01-17 17:06:00,36.9,9.8,29.85,South,179,7.6,8.1,32,0.00,,---,0.00,VWS V14.01,2013-01-18 00:06:00,
2013-01-17 17:11:00,36.5,9.5,29.85,South,172,5.8,8.1,32,0.00,,---,0.00,VWS V14.01,2013-01-18 00:11:00,
2013-01-17 17:16:00,36.1,9.1,29.85,South,174,7.6,7.6,32,0.00,,---,0.00,VWS V14.01,2013-01-18 00:16:00,
2013-01-17 17:22:00,35.8,8.8,29.85,South,172,7.6,8.1,32,0.00,,---,0.00,VWS V14.01,2013-01-18 00:22:00,
2013-01-17 17:27:00,35.6,9.4,29.85,South,181,7.6,7.6,33,0.00,,---,0.00,VWS V14.01,2013-01-18 00:27:00,
2013-01-17 17:32:00,35.4,9.2,29.85,South,174,5.8,6.3,33,0.00,,---,0.00,VWS V14.01,2013-01-18 00:32:00,
2013-01-17 17:37:00,34.9,8.7,29.85,South,173,6.3,6.7,33,0.00,,---,0.00,VWS V14.01,2013-01-18 00:37:00,
2013-01-17 17:43:00,34.0,7.9,29.85,SSE,164,7.2,7.2,33,0.00,,---,0.00,VWS V14.01,2013-01-18 00:43:00,
2013-01-17 17:49:00,33.6,8.3,29.85,SSE,168,7.2,7.6,34,0.00,,---,0.00,VWS V14.01,2013-01-18 00:49:00,
2013-01-17 17:54:00,33.3,7.9,29.85,South,169,8.1,8.3,34,0.00,,---,0.00,VWS V14.01,2013-01-18 00:54:00,
2013-01-17 18:00:00,33.4,8.7,29.85,SSE,164,5.8,6.3,35,0.00,,---,0.00,VWS V14.01,2013-01-18 01:00:00,
2013-01-17 18:05:00,33.3,8.6,29.85,SSE,160,7.2,7.6,35,0.00,,---,0.00,VWS V14.01,2013-01-18 01:05:00,
2013-01-17 18:11:00,33.1,8.4,29.85,SSE,160,7.6,8.3,35,0.00,,---,0.00,VWS V14.01,2013-01-18 01:11:00,
2013-01-17 18:17:00,33.1,9.1,29.85,SSE,158,7.6,8.1,36,0.00,,---,0.00,VWS V14.01,2013-01-18 01:17:00,
2013-01-17 18:22:00,33.1,9.1,29.85,SSE,156,8.1,8.1,36,0.00,,---,0.00,VWS V14.01,2013-01-18 01:22:00,
2013-01-17 18:28:00,33.1,9.7,29.85,SSE,158,7.6,8.1,37,0.00,,---,0.00,VWS V14.01,2013-01-18 01:28:00,
2013-01-17 18:33:00,33.1,10.2,29.85,SSE,159,8.3,8.3,38,0.00,,---,0.00,VWS V14.01,2013-01-18 01:33:00,
2013-01-17 18:39:00,33.1,10.2,29.82,SSE,161,8.1,8.1,38,0.00,,---,0.00,VWS V14.01,2013-01-18 01:39:00,
2013-01-17 18:44:00,33.1,10.8,29.82,SSE,158,7.6,7.6,39,0.00,,---,0.00,VWS V14.01,2013-01-18 01:44:00,
2013-01-17 18:49:00,32.9,10.7,29.82,SSE,158,8.1,8.1,39,0.00,,---,0.00,VWS V14.01,2013-01-18 01:49:00,
2013-01-17 18:55:00,32.7,11.1,29.82,SSE,160,8.1,8.3,40,0.00,,---,0.00,VWS V14.01,2013-01-18 01:55:00,
2013-01-17 19:00:00,32.7,11.1,29.82,SSE,163,8.3,8.7,40,0.00,,---,0.00,VWS V14.01,2013-01-18 02:00:00,
2013-01-17 19:06:00,32.5,10.9,29.82,SSE,168,8.7,9.2,40,0.00,,---,0.00,VWS V14.01,2013-01-18 02:06:00,
2013-01-17 19:11:00,32.7,11.1,29.79,SSE,162,8.3,10.5,40,0.00,,---,0.00,VWS V14.01,2013-01-18 02:11:00,
2013-01-17 19:17:00,32.9,11.2,29.79,SSE,157,7.6,8.3,40,0.00,,---,0.00,VWS V14.01,2013-01-18 02:17:00,
2013-01-17 19:23:00,33.1,12.0,29.79,SSE,158,10.5,10.5,41,0.00,,---,0.00,VWS V14.01,2013-01-18 02:23:00,
2013-01-17 19:28:00,33.1,12.0,29.79,SSE,164,8.7,8.7,41,0.00,,---,0.00,VWS V14.01,2013-01-18 02:28:00,
2013-01-17 19:34:00,32.7,11.6,29.79,SSE,166,8.3,9.2,41,0.00,,---,0.00,VWS V14.01,2013-01-18 02:34:00,
2013-01-17 19:39:00,32.7,11.6,29.79,SSE,149,8.7,8.7,41,0.00,,---,0.00,VWS V14.01,2013-01-18 02:39:00,
2013-01-17 19:45:00,32.5,11.5,29.79,SSE,163,6.3,8.7,41,0.00,,---,0.00,VWS V14.01,2013-01-18 02:45:00,
2013-01-17 19:51:00,32.5,11.5,29.79,SSE,151,11.0,11.0,41,0.00,,---,0.00,VWS V14.01,2013-01-18 02:51:00,
2013-01-17 19:56:00,32.4,11.3,29.79,South,171,8.1,8.3,41,0.00,,---,0.00,VWS V14.01,2013-01-18 02:56:00,
2013-01-17 20:02:00,32.4,11.3,29.79,SSE,166,8.7,9.6,41,0.00,,---,0.00,VWS V14.01,2013-01-18 03:02:00,
2013-01-17 20:07:00,32.2,11.1,29.79,SSE,163,8.7,8.7,41,0.00,,---,0.00,VWS V14.01,2013-01-18 03:07:00,
2013-01-17 20:13:00,32.0,10.4,29.79,SSE,167,8.1,10.5,40,0.00,,---,0.00,VWS V14.01,2013-01-18 03:13:00,
2013-01-17 20:18:00,31.8,10.3,29.79,SSE,164,8.7,8.7,40,0.00,,---,0.00,VWS V14.01,2013-01-18 03:18:00,
2013-01-17 20:23:00,31.5,9.9,29.79,SSE,163,8.3,9.2,40,0.00,,---,0.00,VWS V14.01,2013-01-18 03:23:00,
2013-01-17 20:29:00,31.3,9.8,29.79,South,169,8.3,8.7,40,0.00,,---,0.00,VWS V14.01,2013-01-18 03:29:00,
2013-01-17 20:34:00,31.1,9.6,29.79,SSE,167,10.1,10.1,40,0.00,,---,0.00,VWS V14.01,2013-01-18 03:34:00,
2013-01-17 20:40:00,31.1,9.6,29.79,SSE,165,8.7,9.2,40,0.00,,---,0.00,VWS V14.01,2013-01-18 03:40:00,
2013-01-17 20:46:00,31.1,10.2,29.79,South,183,8.7,10.1,41,0.00,,---,0.00,VWS V14.01,2013-01-18 03:46:00,
2013-01-17 20:51:00,31.1,10.2,29.79,SSE,168,8.3,9.6,41,0.00,,---,0.00,VWS V14.01,2013-01-18 03:51:00,
2013-01-17 20:56:00,31.1,10.2,29.76,SSE,168,8.1,8.7,41,0.00,,---,0.00,VWS V14.01,2013-01-18 03:56:00,
2013-01-17 21:02:00,31.5,10.5,29.76,SSE,167,8.7,8.7,41,0.00,,---,0.00,VWS V14.01,2013-01-18 04:02:00,
2013-01-17 21:08:00,31.3,10.3,29.76,SSE,165,8.7,8.7,41,0.00,,---,0.00,VWS V14.01,2013-01-18 04:08:00,
2013-01-17 21:13:00,31.1,10.2,29.76,SSE,167,9.6,9.6,41,0.00,,---,0.00,VWS V14.01,2013-01-18 04:13:00,
2013-01-17 21:18:00,30.9,10.0,29.76,South,184,11.0,11.0,41,0.00,,---,0.00,VWS V14.01,2013-01-18 04:18:00,
2013-01-17 21:23:00,30.9,10.0,29.76,South,182,8.7,10.1,41,0.00,,---,0.00,VWS V14.01,2013-01-18 04:23:00,
2013-01-17 21:29:00,30.7,9.8,29.76,South,183,8.1,8.7,41,0.00,,---,0.00,VWS V14.01,2013-01-18 04:29:00,
2013-01-17 21:34:00,30.6,9.7,29.76,South,187,9.2,10.1,41,0.00,,---,0.00,VWS V14.01,2013-01-18 04:34:00,
2013-01-17 21:39:00,30.6,9.7,29.76,South,185,8.1,8.7,41,0.00,,---,0.00,VWS V14.01,2013-01-18 04:39:00,
2013-01-17 21:44:00,30.7,9.8,29.76,SSW,192,8.7,11.0,41,0.00,,---,0.00,VWS V14.01,2013-01-18 04:44:00,
2013-01-17 21:50:00,31.1,10.7,29.73,SSW,192,10.5,11.0,42,0.00,,---,0.00,VWS V14.01,2013-01-18 04:50:00,
2013-01-17 21:55:00,31.8,11.4,29.73,South,186,10.5,11.0,42,0.00,,---,0.00,VWS V14.01,2013-01-18 04:55:00,
2013-01-17 22:01:00,32.0,11.5,29.73,SSW,192,8.7,10.1,42,0.00,,---,0.00,VWS V14.01,2013-01-18 05:01:00,
2013-01-17 22:03:00,32.0,11.5,29.73,SSW,196,10.1,11.0,42,0.00,,---,0.00,VWS V14.01,2013-01-18 05:03:00,
2013-01-17 22:04:00,32.0,11.5,29.73,SSW,192,8.3,10.5,42,0.00,,---,0.00,VWS V14.01,2013-01-18 05:04:00,
2013-01-17 22:05:00,32.0,11.5,29.73,SSW,198,9.6,9.6,42,0.00,,---,0.00,VWS V14.01,2013-01-18 05:05:00,
2013-01-17 22:10:00,31.8,11.4,29.73,SSW,202,8.7,9.2,42,0.00,,---,0.00,VWS V14.01,2013-01-18 05:10:00,
2013-01-17 22:15:00,31.5,11.0,29.73,SSW,202,8.3,8.3,42,0.00,,---,0.00,VWS V14.01,2013-01-18 05:15:00,
2013-01-17 22:20:00,30.7,10.4,29.73,SSW,195,8.3,8.7,42,0.00,,---,0.00,VWS V14.01,2013-01-18 05:20:00,
2013-01-17 22:26:00,30.2,9.9,29.73,SSW,200,8.1,8.3,42,0.00,,---,0.00,VWS V14.01,2013-01-18 05:26:00,
2013-01-17 22:31:00,29.8,9.6,29.73,SSW,197,7.6,8.3,42,0.00,,---,0.00,VWS V14.01,2013-01-18 05:31:00,
2013-01-17 22:37:00,29.8,9.6,29.73,SSW,197,8.7,8.7,42,0.00,,---,0.00,VWS V14.01,2013-01-18 05:37:00,
2013-01-17 22:42:00,29.7,9.4,29.73,South,191,7.2,7.6,42,0.00,,---,0.00,VWS V14.01,2013-01-18 05:42:00,
2013-01-17 22:48:00,29.5,9.2,29.73,SSW,193,7.6,8.3,42,0.00,,---,0.00,VWS V14.01,2013-01-18 05:48:00,
2013-01-17 22:53:00,29.5,9.2,29.73,South,185,7.6,8.7,42,0.00,,---,0.00,VWS V14.01,2013-01-18 05:53:00,
2013-01-17 22:59:00,29.3,9.1,29.73,South,191,8.1,8.1,42,0.00,,---,0.00,VWS V14.01,2013-01-18 05:59:00,
2013-01-17 23:04:00,29.3,9.1,29.73,South,190,7.6,8.3,42,0.00,,---,0.00,VWS V14.01,2013-01-18 06:04:00,
2013-01-17 23:10:00,29.3,9.6,29.73,South,189,7.6,8.7,43,0.00,,---,0.00,VWS V14.01,2013-01-18 06:10:00,
2013-01-17 23:16:00,29.3,9.6,29.73,South,182,8.1,8.1,43,0.00,,---,0.00,VWS V14.01,2013-01-18 06:16:00,
2013-01-17 23:21:00,29.5,9.8,29.70,South,186,8.1,8.1,43,0.00,,---,0.00,VWS V14.01,2013-01-18 06:21:00,
2013-01-17 23:27:00,29.5,9.8,29.70,SSW,192,7.6,7.6,43,0.00,,---,0.00,VWS V14.01,2013-01-18 06:27:00,
2013-01-17 23:33:00,29.5,9.8,29.70,SSW,198,6.3,7.6,43,0.00,,---,0.00,VWS V14.01,2013-01-18 06:33:00,
2013-01-17 23:38:00,29.5,9.8,29.70,SSW,201,7.2,7.6,43,0.00,,---,0.00,VWS V14.01,2013-01-18 06:38:00,
2013-01-17 23:43:00,29.3,9.6,29.70,SSW,205,7.6,7.6,43,0.00,,---,0.00,VWS V14.01,2013-01-18 06:43:00,
2013-01-17 23:48:00,29.3,9.6,29.70,SSW,208,7.6,7.6,43,0.00,,---,0.00,VWS V14.01,2013-01-18 06:48:00,
2013-01-17 23:54:00,28.9,9.8,29.70,SSW,196,8.1,8.1,44,0.00,,---,0.00,VWS V14.01,2013-01-18 06:54:00,
2013-01-17 23:59:00,28.9,9.8,29.70,SSW,195,7.6,8.7,44,0.00,,---,0.00,VWS V14.01,2013-01-18 06:59:00,